Regional Weather Roundup
Issued by NWS Wakefield, VA

Home | Current Version | Previous Version | Text Only | Print | Product List | Glossary Off
Versions: 1 2 3 4 5 6 7 8 9 10 11 12 13 14 15 16 17 18 19 20 21 22 23 24 25 26 27 28 29 30 31 32 33 34 35 36 37 38 39 40 41 42 43 44 45 46 47 48 49 50

000
ASUS41 KAKQ 041910
RWRAKQ

REGIONAL WEATHER ROUNDUP
NATIONAL WEATHER SERVICE WAKEFIELD VA
200 PM EST WED MAR 04 2015

Note: "fair" indicates few or no clouds below 12,000 feet with no
significant weather and/or obstructions to visibility. * = Denotes
station may not report precipitation (e.g., rain,snow,etc.),
thunder or fog.

VAZ042-051-052>054-056-042000-
NORTHERN VIRGINIA

CITY           SKY/WX    TMP DP  RH WIND       PRES   REMARKS
WASH NATIONAL  CLOUDY    48  43  82 S6        29.88F
DULLES         CLOUDY    44  41  89 S7        29.86S
FORT BELVOIR   CLOUDY    47  44  92 CALM      29.88R
QUANTICO       CLOUDY    46  44  93 CALM      29.88F FOG
FREDERICKSBRG* CLOUDY    55  53  92 SW5       29.88F
STAFFORD*      CLOUDY    51  32  47 SW6       29.91F
WARRENTON      CLOUDY    49  49 100 S8        29.86F
CULPEPER*      CLOUDY    48  46  93 S6        29.86F FOG
MANASSAS*      CLOUDY    46  46 100 S6        29.86F
LEESBURG*      LGT RAIN  45  43  93 S3        29.87R
WINCHESTER     DRIZZLE   52  41  66 SW8       29.84R
FRONT ROYAL*   CLOUDY    52  46  82 SW7       29.83S
LURAY*         CLOUDY    54  52  94 SW12      29.85S
$$

VAZ048-049-060>072-079>083-042000-
CENTRAL AND SOUTH CENTRAL VIRGINIA

CITY           SKY/WX    TMP DP  RH WIND       PRES   REMARKS
RICHMOND       CLOUDY    60  52  74 W3        29.89F
CHESTERFIELD*  CLOUDY    61  46  59 CALM      29.90F
PETERSBURG*    CLOUDY    60  56  85 SW7       29.90F
HANOVER        CLOUDY    56  52  86 S9        29.90F
TAPPAHANNOCK*  CLOUDY    57  52  82 S3        29.90F
QUINTON*       CLOUDY    58  53  85 SW6       29.90F
CHARLOTTSVILLE LGT RAIN  49  44  83 S6        29.88F
GORDONSVILLE*  CLOUDY    48  44  84 W3        29.89S
ORANGE*        CLOUDY    50  46  87 S9        29.91R
LOUISA*        CLOUDY    55  50  82 W3        29.87S
BUMPASS*       CLOUDY    54  50  88 SW5       29.89S
FARMVILLE*     CLOUDY    65  54  67 CALM      29.88F
CREWE*         CLOUDY    59  53  79 CALM      29.89F
FORT PICKETT*  CLOUDY    56  55  93 SW6       29.89F
CHASE CITY*    MOCLDY    63  60  89 CALM      29.87F
CLARKSVILLE*   MOCLDY    64  55  72 N6        29.86F
SOUTH HILL*    PTSUNNY   64  56  77 CALM      29.93F
LAWRENCEVILLE* MOCLDY    63  57  79 N3        29.88F
EMPORIA*       SUNNY     68  55  64 S12G17    29.90F
$$

VAZ088>098-042000-
SOUTHEAST VIRGINIA

CITY           SKY/WX    TMP DP  RH WIND       PRES   REMARKS
NORFOLK        CLOUDY    62  55  77 SW13      29.92F
VIRGINIA BEACH CLOUDY    65  58  78 SW10      29.92F
NORFOLK NAVAL  CLOUDY    63  55  75 S3        29.93F
WEST POINT*    CLOUDY    59  54  82 S3        29.92F
SALUDA*        CLOUDY    56  52  86 SW5       29.90F
NEWPORT NEWS   CLOUDY    63  56  78 SW12      29.91F
LANGLEY AFB    SUNNY     61  55  82 SW13      29.90F
FORT EUSTIS    CLOUDY    59 N/A N/A S6        29.89F FOG
WILLIAMSBURG*  MOSUNNY   61  57  88 W3        29.91F
HR EXEC AP*    MOCLDY    64  57  77 SW13      29.94F
FRANKLIN*      PTSUNNY   64  57  79 SW14G22   29.92F
WAKEFIELD      PTSUNNY   63  55  75 S5        29.91F
$$

VAZ020-022-025-037-045-042000-
WEST CENTRAL AND SOUTHWEST VIRGINIA

CITY           SKY/WX    TMP DP  RH WIND       PRES   REMARKS
STAUNTON*      LGT RAIN  49  47  95 S8        29.90S
WAYNESBORO*    CLOUDY    50  47  90 S5        29.88F
HOT SPRINGS VA DRZL/FOG  44  44 100 W12       29.87F VSB<1/4
LYNCHBURG      CLOUDY    57  51  80 CALM      29.91S
DANVILLE       PTSUNNY   67  55  65 CALM      29.85F
SOUTH BOSTON*  FAIR      64  55  74 NE3       29.87F
MARTINSVILLE   NOT AVBL
ROANOKE        CLOUDY    52  49  89 E7        29.92F
BLACKSBURG     CLOUDY    49  46  90 CALM      29.92F
DUBLIN*        CLOUDY    51  51 100 E3        29.90F
MARION*        CLOUDY    55  53  93 CALM      29.90F
HILLSVILLE*    CLOUDY    56  53  88 N5        29.88S
RICHLANDS*     LGT RAIN  47  46  95 N3        29.90F VSB<1/4
WISE*          HVY RAIN  46  46 100 N5        29.91F
ABINGDON*      CLOUDY    55  55 100 CALM      29.87F
$$

MDZ021>025-VAZ099-100-042000-
SOUTHERN MARYLAND AND THE DELMARVA PENINSULA

CITY           SKY/WX    TMP DP  RH WIND       PRES   REMARKS
PATUXENT RIVER CLOUDY    50  48  93 S7        29.88F
BAY BRIDGE APT   N/A     43  43 100 S5        29.87F FOG
LEONARDTOWN    CLOUDY    50  46  87 S8        29.90F
DOVER          CLOUDY    47  47 100 S7        29.82F FOG
GEORGETOWN     CLOUDY    49  48  97 SW8       29.88F FOG
EASTON         CLOUDY    48  48 100 S9        29.91F FOG
CAMBRIDGE      CLOUDY    46  45  93 S6        29.88F
SALISBURY      CLOUDY    51  48  89 S8        29.89F FOG
OCEAN CITY     FOG       44  43  96 S5        29.91S VSB 1
WALLOPS ISLAND CLOUDY    49  49 100 S5        29.92S FOG
ACCOMACK*      CLOUDY    52  50  93 SW7       29.92F FOG
$$

NCZ012>017-030>032-042000-
NORTH CENTRAL AND EASTERN NORTH CAROLINA

CITY           SKY/WX    TMP DP  RH WIND       PRES   REMARKS
ROANOKE RAPIDS FAIR      70  59  68 SW18      29.92F
RALEIGH        PTSUNNY   68  58  70 SW18G30   29.92F
ELIZABETH CITY PTSUNNY   73  62  68 SW14G25   29.93F
AHOSKIE*       NOT AVBL
EDENTON*       PTSUNNY   70  61  72 W10G16    29.94F
CURRITUCK*     CLOUDY    68  60  76 SW13G18   29.94F
KILL DEVIL HLS MOSUNNY   69  60  71 SW6       29.93F
MANTEO         CLOUDY    64  55  72 S8        29.95F
CAPE HATTERAS  FOG       56  56 100 SW13      29.99F VSB 1/4
TARBORO*       FAIR      69  60  71 SW8G18    29.95F
GOLDSBORO      NOT AVBL
WASHINGTON     MOSUNNY   76  63  62 SW18G26   29.93F
GREENVILLE     MOSUNNY   73  63  68 W13G20    29.95F
NEW BERN       CLOUDY    79  63  57 SW20G26   29.96F
WILMINGTON     SUNNY     76  64  66 S18G25    29.98F
$$

VAZ048-042000-
ELSEWHERE

CITY           SKY/WX    TMP DP  RH WIND       PRES   REMARKS
HARRISBURG PA  CLOUDY    42  39  89 CALM      29.85F FOG
BALTIMORE      LGT RAIN  44  41  89 W3        29.86S FOG
ANNAPOLIS      FOG       36  35  96 E3        29.86F VSB 3/4
ANDREWS AFB    CLOUDY    47  47  98 W7        29.86F
PHILADELPHIA   CLOUDY    43  40  89 SW3       29.88F FOG
HENDERSON NC   SUNNY     71  56  59 S17G24    29.87F
GREENSBORO     PTSUNNY   72  57  59 SW22G31   29.86F
ROCKY MOUNT    SUNNY     67  59  75 SW13      29.94F
$$

VAZ100-042000-
MARINE

STATION/POSITION TIME  TEMP    WIND        PRES    WAVE   SWELL
                       AIR SEA DIR/SP/G            HT/PER HT/PER
                 (UTC) (F)     (DEG/KT/KT) (MB)    (FT/S) (FT/S)
BRANDYWINE LGT   1800   46 31  230/ 12/ 13 1011.7F
CAPE MAY NJ      1800   43 34  220/  6/  8 1011.6F
LEWES DE         1800   50 31  220/  7/ 12 1011.7F
15NM E FENWICK I 1900   37 35              1011.9F   5/ 8
OCEAN-CITY-INLET 1800   39 34  190/  5/  6 1012.1F
WACHAPREAGUE VA  1800   54 39  250/  6/  9 1013.2F
THOMAS POINT MD  1800   36 32  170/  8/  9 1013.1F
COVE POINT MD    1800   41     180/ 10/ 11 1012.0F
SOLOMONS ISLAND  1800      34                N/A
BISHOPS HEAD MD  1800   39 33  170/  8/  9 1012.0F
CAMBRIDGE MD     1800   47 32  200/  2/  9 1011.8F
LEWISETTA VA     1800   43 34     CALM     1012.2F
RAPPAHANNOCK LGT 1800          180/ 13/ 14 1013.7F
STINGRAY PT      1900   38     180/  4/  6   N/A
YORK RVR RNG VA  1800   49     250/  7/  8 1012.5F
YORKTOWN VA      1800   56 34  220/  5/  8 1012.7F
DOMINION TERM VA 1800   52     260/  4/  5 1013.5F
KIPTOPEKE VA     1800      38  230/  9/ 12   N/A
CHES BAY BRIDGE  1800   50 35   40/  2/  4 1013.3F
CAPE HENRY VA    1800   47     100/  6/  7 1012.4F
CHESAPEAKE LGHT  1800   48      CALM  /  1 1015.0F
WILLOUBY STN VA  1800   53     240/  5/  5 1013.9F
S CRANEY ISL VA  1800          220/  3/  5 1013.4F
CAPE HENRY BUOY  1800      36                N/A     3/ 8
1ST LANDING BUOY 1900   39     120/  4/  4 1013.5S
OFFSHORE WE BUOY 1900      37                N/A     5/ 8   5/ 8
64NM E OF VA BCH 1900   53 54  230/ 10/ 12 1013.9F   5/ 8   5/ 8
DUCK PIER NC     1800   60 36  230/  9/ 12 1013.1F
44100 DUCK FRF   1800      38                N/A     4/ 7   2/13
44056 DUCK FRF   1900      38                N/A     3/ 9
OREGON INLET NC  1800   52 45  190/ 19/ 22 1014.5F
HATTERAS NC      1800   56 45  230/ 12/ 17 1016.3F
CAPE LOOKOUT NC  1800   59     230/ 11/ 14 1017.3F
$$



USA.gov is the U.S. government's official web portal to all federal, state and local government web resources and services.